Location: Arthez
(43.0833°N, 0.2500°W)
Time: 03:41:17
(UTC+00:00)

Meteor 2-11 Rocket - Pass Details

Date: 23 October 2021
Orbit: 938 x 958 km, 82.5° (Epoch: 27 November)

Event Time Altitude Azimuth Distance (km) Brightness Sun altitude
Rises 19:16:47 0° 185° (S) 3,622 7.5 -24.6°
Reaches altitude 10° 19:19:16 10° 185° (S) 2,681 6.8 -25.1°
Maximum altitude 19:25:25 87° 97° (E) 964 4.3 -26.2°
Drops below altitude 10° 19:31:36 10° 9° (N) 2,694 6.8 -27.3°
Sets 19:34:06 0° 9° (N) 3,642 7.5 -27.7°
